This is the latest recevied weather packets stored in our database for station/object DO1TOB-60. If no packets are shown the sender has not sent any weather packets the latest 1 day(s).
| Time | Temp. | Humidity | Pressure | Rain* | Wind** | Luminosity | Snow |
|---|---|---|---|---|---|---|---|
| 1777998621 | 12.78° C | 93% | 1008 hPa | 0 mm | 2.24 m/s, 346° | - | - |
| 1777998561 | 12.78° C | 93% | 1008 hPa | 0 mm | 1.79 m/s, 323° | - | - |
| 1777998502 | 12.78° C | 93% | 1008 hPa | 0 mm | 2.24 m/s, 331° | - | - |
| 1777998441 | 12.78° C | 93% | 1008 hPa | 0 mm | 1.79 m/s, 324° | - | - |
| 1777998381 | 12.78° C | 92% | 1007.9 hPa | 0 mm | 1.34 m/s, 329° | - | - |
| 1777998325 | 12.78° C | 92% | 1008 hPa | 0 mm | 0.89 m/s, 341° | - | - |
| 1777998201 | 12.78° C | 92% | 1008 hPa | 0 mm | 1.34 m/s, 338° | - | - |
| 1777998141 | 12.78° C | 92% | 1007.9 hPa | 0 mm | 2.24 m/s, 332° | - | - |
| 1777998082 | 12.78° C | 92% | 1008 hPa | 0 mm | 0.45 m/s, 329° | - | - |
| 1777998008 | 12.78° C | 92% | 1008 hPa | 0 mm | 0.89 m/s, 346° | - | - |
| 1777997952 | 13.33° C | 93% | 1008 hPa | 0 mm | 2.24 m/s, 337° | - | - |
| 1777997877 | 13.33° C | 92% | 1008 hPa | 0 mm | 0.45 m/s, 325° | - | - |
| 1777997807 | 13.33° C | 92% | 1008 hPa | 0 mm | 2.24 m/s, 330° | - | - |
| 1777997747 | 13.33° C | 92% | 1007.9 hPa | 0 mm | 1.79 m/s, 331° | - | - |
| 1777997687 | 13.33° C | 92% | 1008.1 hPa | 0 mm | 2.24 m/s, 334° | - | - |
| 1777997628 | 13.33° C | 92% | 1008.1 hPa | 0 mm | 1.34 m/s, 340° | - | - |
| 1777997567 | 13.33° C | 92% | 1008.1 hPa | 0 mm | 2.24 m/s, 337° | - | - |
| 1777997507 | 13.33° C | 92% | 1008 hPa | 0 mm | 2.24 m/s, 336° | - | - |
| 1777997447 | 13.33° C | 92% | 1008.1 hPa | 0 mm | 2.24 m/s, 329° | - | - |
| 1777997387 | 13.33° C | 92% | 1008 hPa | 0 mm | 2.24 m/s, 326° | - | - |
| 1777997317 | 13.33° C | 93% | 1008 hPa | 0 mm | 2.68 m/s, 329° | - | - |
| 1777997257 | 13.33° C | 93% | 1008 hPa | 0 mm | 1.79 m/s, 322° | - | - |
| 1777997198 | 13.33° C | 93% | 1008 hPa | 0 mm | 2.68 m/s, 335° | - | - |
| 1777997138 | 13.33° C | 93% | 1008 hPa | 0 mm | 1.79 m/s, 355° | - | - |
| 1777997077 | 13.33° C | 93% | 1008 hPa | 0 mm | 2.68 m/s, 329° | - | - |
* Rain latest hour (hover to see other rain measurements)
** Current wind speed in m/s (hover to see current wind gust speed)